GFSSE_925_thetae_000.txt.gz
Theta_e
322 317 320 326 325 320 319 319 319 320 319 317 316 316 316 315 314 315 316 316 316 318 322 329 329 329 330 331 333 333 334 337 338 340 345 344 343 343 345 345 344 346 345
326 319 319 323 324 321 320 320 321 321 322 321 321 323 322 322 323 322 321 321 322 324 329 330 330 330 329 330 332 333 334 335 338 334 341 343 343 343 344 344 343 344 345
326 325 318 321 324 321 321 321 322 324 324 324 325 325 327 330 331 332 333 333 333 332 332 332 332 331 330 330 331 332 333 334 335 336 337 340 341 342 343 343 342 343 344
325 329 318 320 324 322 322 321 322 325 326 326 326 330 331 331 331 333 334 334 334 334 335 335 334 333 331 330 330 331 333 334 334 336 334 335 338 342 343 344 342 343 344
326 330 323 321 323 322 322 321 323 327 328 330 335 334 334 333 333 335 334 334 334 334 336 336 336 335 334 332 331 329 330 333 334 334 333 332 336 339 343 343 344 343 343
330 332 326 323 323 322 322 322 323 327 328 329 335 337 336 337 337 332 332 335 334 335 333 333 335 337 336 335 333 331 331 333 335 333 333 327 334 338 341 343 342 343 343
333 333 327 324 322 322 322 323 324 325 325 328 336 337 338 336 337 335 335 334 334 334 333 332 332 332 335 336 335 333 332 336 333 329 330 324 331 336 339 342 341 342 342
333 332 327 324 323 323 324 324 325 324 323 323 333 335 338 337 336 335 335 335 334 334 332 331 332 331 332 334 334 332 333 335 334 331 331 325 328 335 338 341 340 340 342
331 329 326 324 325 325 325 325 325 321 321 321 323 326 328 326 325 329 330 332 332 333 332 332 332 331 331 332 334 331 330 333 334 332 329 329 326 335 339 340 340 339 342
330 328 327 326 327 327 327 327 325 322 321 322 324 325 324 326 324 328 328 328 329 330 330 330 331 331 331 331 331 331 332 331 331 333 330 328 326 333 339 340 342 339 341
331 329 328 328 329 328 329 328 326 323 323 324 326 325 327 326 324 323 323 323 326 329 329 329 329 329 329 331 332 332 332 331 328 328 331 329 326 330 338 340 342 341 341
334 332 330 330 330 329 329 328 325 324 325 325 326 326 326 326 324 323 324 323 328 330 331 331 331 331 330 330 329 331 331 330 326 324 326 329 328 328 339 341 341 341 341
332 333 332 333 331 330 329 325 327 325 325 326 326 327 327 326 325 324 325 324 324 324 325 325 323 327 329 330 329 329 330 329 324 321 325 328 328 330 339 341 342 341 340
330 331 333 336 332 330 327 326 324 324 326 327 327 328 329 327 326 325 326 324 324 324 325 325 324 326 328 329 330 330 329 327 324 321 327 329 328 329 334 341 341 341 340
326 329 333 333 332 329 327 325 324 325 327 327 328 327 327 327 326 326 327 326 324 326 325 325 325 325 327 328 328 328 328 326 322 322 328 328 328 333 334 336 342 341 341
322 323 325 330 331 329 325 324 324 326 327 328 328 328 328 328 327 327 327 327 325 324 325 325 324 324 325 327 328 328 327 325 322 326 328 329 328 334 333 334 341 341 341
320 320 322 329 329 324 324 322 326 327 328 329 329 329 329 329 329 329 327 328 326 324 325 324 323 324 324 326 326 326 326 325 322 325 325 328 329 333 331 332 336 341 341
320 320 323 327 324 325 324 324 327 328 329 329 329 330 330 330 329 329 328 328 325 324 324 324 323 324 324 325 325 324 324 325 324 324 325 329 330 331 331 330 336 339 338
320 320 324 324 325 324 324 326 328 329 329 329 329 330 330 330 330 329 328 327 326 323 324 324 323 323 324 324 324 324 324 324 324 324 328 329 331 330 330 332 335 335 338
320 321 323 325 325 325 325 326 328 328 329 329 330 330 330 330 330 329 327 325 321 324 324 324 323 322 323 324 324 324 325 325 324 325 328 329 329 330 329 330 332 334 335
321 322 325 326 327 327 326 328 327 329 329 329 329 329 330 330 329 328 324 322 321 325 323 323 323 322 323 323 324 325 326 327 328 327 328 329 330 329 330 332 333 335 337
323 324 326 326 327 327 328 327 328 329 329 328 328 329 330 329 329 328 325 323 325 324 323 322 321 321 322 323 323 323 327 327 327 327 329 329 330 330 331 334 335 335 336
323 325 326 327 327 328 328 327 328 328 328 328 328 328 329 328 327 327 326 325 325 324 322 322 321 321 322 323 324 325 327 328 327 328 329 329 334 330 334 334 335 335 333
323 326 327 327 327 329 328 328 327 328 328 327 327 327 327 325 326 325 325 325 324 323 322 321 321 322 323 324 325 326 326 327 330 331 328 328 330 332 334 334 333 332 329
325 327 327 327 328 328 328 329 330 328 327 327 326 327 326 326 325 325 324 323 323 323 323 321 321 322 324 325 325 326 327 327 328 330 329 330 330 333 332 333 332 330 331
326 327 327 328 329 328 328 329 330 327 326 325 325 326 325 325 326 324 323 324 324 324 323 323 322 323 324 325 325 325 326 327 328 329 331 330 330 332 332 333 332 332 330

GFSSE_925_thetae_003.txt.gz
Theta_e
326 328 318 318 319 317 316 317 317 317 317 316 314 313 313 313 313 313 313 316 318 321 327 330 330 330 330 331 332 333 334 335 338 340 344 344 342 342 343 344 343 349 346
327 324 320 319 321 319 317 318 318 319 320 319 318 316 316 316 315 316 317 319 321 325 331 333 332 331 330 331 331 333 334 334 336 336 337 342 342 342 342 343 343 347 345
325 321 320 319 322 321 319 319 319 321 321 321 321 321 320 319 321 321 323 324 323 327 335 335 335 334 332 331 331 332 332 334 335 331 333 339 343 341 341 342 342 343 343
326 318 322 318 321 323 320 320 320 322 323 324 324 325 327 325 327 332 333 335 335 334 334 337 337 336 335 333 332 331 333 335 334 334 330 334 339 340 341 342 342 342 343
326 323 318 317 321 324 322 321 321 322 324 325 326 329 331 328 325 327 333 336 336 335 334 337 338 338 337 336 334 331 330 333 335 332 333 333 336 339 341 342 343 341 342
326 329 324 319 320 324 322 322 322 322 324 326 328 332 334 334 334 336 337 334 337 336 335 336 335 335 337 337 337 334 332 334 335 331 333 332 331 337 339 342 342 343 342
327 329 329 320 320 323 322 322 322 323 325 327 331 335 337 336 337 336 337 337 336 336 336 336 334 333 333 334 335 337 335 333 332 334 334 333 331 331 337 341 342 341 343
330 326 332 324 321 323 322 323 323 324 326 328 329 334 335 337 338 337 336 337 336 336 336 336 333 332 332 332 333 333 335 333 335 335 334 333 331 329 336 339 342 341 342
333 328 333 335 322 323 322 323 324 325 325 325 326 332 333 332 330 329 330 332 333 334 335 335 333 331 332 333 333 332 334 335 333 335 334 332 331 326 336 339 341 341 341
336 336 336 334 335 335 337 324 324 326 324 323 329 329 327 325 326 326 327 328 327 331 332 332 332 332 332 330 331 331 333 334 332 333 334 332 329 325 335 339 341 341 339
335 337 336 337 335 338 339 339 327 327 323 325 327 326 327 330 330 328 325 324 326 329 330 331 331 331 331 331 332 332 332 330 331 331 331 333 329 327 335 339 341 342 340
334 334 333 328 336 333 338 339 339 338 335 335 333 330 332 332 329 328 325 324 326 330 332 332 332 331 332 328 328 331 330 330 331 330 328 330 328 330 336 339 340 342 342
334 334 333 330 329 334 339 339 339 336 335 334 327 327 329 329 329 329 328 329 329 327 327 328 328 327 329 331 330 328 328 331 330 330 327 327 327 332 336 339 340 341 342
332 333 332 330 330 334 338 335 335 333 331 330 330 327 331 331 330 330 328 329 329 328 328 329 328 328 329 330 330 330 328 329 329 329 326 324 330 331 335 338 339 341 342
332 332 335 332 330 332 332 332 329 328 327 328 329 329 329 331 332 331 330 330 330 327 329 329 326 328 329 330 330 330 329 329 330 329 326 327 330 329 329 336 337 341 342
329 329 330 331 333 335 332 328 325 325 324 327 328 329 328 330 331 331 330 330 328 326 326 328 327 327 327 329 329 329 329 329 329 327 324 328 331 329 329 332 333 338 341
326 326 326 329 333 335 330 327 325 323 327 328 329 329 329 329 330 331 331 331 328 328 324 325 327 327 327 327 328 328 328 329 326 327 327 331 332 329 332 331 331 334 340
325 322 322 327 333 333 330 327 324 326 328 329 329 329 330 330 331 331 331 332 329 328 325 325 326 327 327 327 328 327 327 327 327 327 330 331 331 333 332 330 329 336 337
321 322 320 324 330 332 328 325 325 328 329 329 329 331 330 331 331 330 331 330 329 328 325 325 325 326 326 327 327 327 326 326 328 328 330 330 331 331 334 331 331 335 333
320 319 320 326 331 328 326 325 328 329 329 329 330 330 331 332 330 330 330 329 327 327 326 327 327 326 326 326 326 326 327 327 328 327 329 330 331 333 334 335 335 337 334
322 322 326 330 328 327 327 329 330 331 331 330 329 329 331 331 330 329 328 326 323 325 324 327 326 326 326 325 326 326 326 326 326 328 329 329 330 331 333 335 337 338 335
326 328 328 329 328 327 328 329 330 331 332 331 329 329 332 331 330 329 328 325 322 326 327 326 325 324 324 325 326 326 328 326 327 328 327 330 333 334 333 336 336 338 336
327 329 330 330 327 327 327 328 328 329 329 330 330 331 330 328 327 328 327 326 325 326 326 325 324 323 324 325 325 327 328 326 328 329 332 331 333 334 334 337 336 337 336
327 329 330 330 327 327 328 329 330 332 332 330 330 329 329 327 328 328 327 326 327 326 325 324 323 323 324 325 326 324 325 329 328 332 331 331 333 334 333 335 336 335 334
327 329 330 329 328 329 328 329 331 332 330 329 328 329 329 328 327 326 326 326 325 325 324 324 323 324 325 325 326 325 328 329 331 332 331 333 333 333 332 335 335 334 332
328 329 330 330 331 329 329 329 331 331 330 328 328 328 328 328 325 326 325 325 324 324 324 324 325 325 326 325 326 326 328 329 331 333 332 333 332 334 333 334 333 332 332

GFSSE_925_thetae_006.txt.gz
Theta_e
332 338 317 313 315 315 314 314 314 314 315 315 313 312 312 312 312 312 315 318 318 320 325 325 323 326 330 331 332 333 330 331 338 341 344 344 342 343 343 345 344 348 347
332 338 320 315 317 317 315 315 316 316 317 318 317 316 315 315 314 314 315 319 323 327 331 333 333 332 331 331 332 333 334 334 333 335 337 342 343 342 342 343 344 348 347
332 338 328 316 317 319 317 316 317 318 319 319 319 319 319 318 317 317 316 320 329 333 335 335 336 335 333 333 331 332 332 334 335 332 329 338 345 343 342 342 343 346 345
331 338 338 320 318 320 319 318 318 319 320 321 321 321 322 322 321 320 323 327 328 334 335 336 338 338 337 335 333 332 333 334 335 335 325 329 338 342 341 343 343 342 344
332 336 339 323 318 321 321 319 319 319 321 322 323 324 324 324 324 326 332 334 337 337 336 335 338 339 338 337 336 334 332 333 335 332 325 330 333 339 339 343 343 342 343
333 334 338 325 319 322 323 321 320 320 321 323 325 326 327 327 328 329 333 337 338 337 337 336 337 338 337 338 338 337 334 334 333 328 329 332 330 335 337 342 343 344 342
334 335 336 327 319 320 324 322 321 321 322 324 326 328 333 333 333 336 337 338 338 337 337 337 338 335 334 335 336 335 336 335 334 330 331 331 330 330 334 340 342 342 342
334 337 338 333 320 320 323 323 322 322 323 325 326 327 331 333 336 338 338 338 337 338 337 337 336 336 333 334 334 334 332 333 335 333 335 332 331 328 330 338 343 341 342
334 335 340 344 334 320 321 324 323 323 323 326 326 328 331 335 337 334 332 330 331 334 335 336 335 334 334 333 333 334 334 331 332 334 336 336 333 326 326 336 340 342 340
335 334 336 340 342 340 338 328 324 323 325 327 327 328 332 333 330 326 327 327 329 330 332 333 334 334 334 334 334 334 332 335 332 330 333 334 333 329 328 334 340 342 341
335 335 334 337 340 339 337 341 333 328 329 330 329 329 330 330 331 332 330 327 323 328 330 331 332 332 332 332 333 333 333 330 330 329 331 333 333 328 334 336 340 341 342
335 335 336 338 339 339 336 338 343 339 336 334 334 334 334 332 334 331 329 326 324 326 330 331 331 331 331 330 329 328 329 329 329 329 330 331 328 331 336 335 339 340 341
334 334 335 338 341 339 337 339 340 336 336 336 336 334 333 333 333 332 331 330 331 330 329 329 330 330 330 329 330 327 327 328 328 329 329 329 326 331 335 335 338 340 339
332 334 334 336 342 342 337 339 337 336 336 335 334 334 334 334 333 333 331 330 331 329 328 329 329 330 330 330 331 330 327 327 329 329 330 328 325 329 335 336 338 339 339
331 333 335 336 341 342 340 339 336 335 334 332 331 333 334 333 333 333 332 332 331 331 328 329 330 329 329 329 329 330 330 327 327 329 329 327 321 325 331 334 338 339 339
331 333 335 337 340 342 342 339 338 335 332 331 330 332 334 334 333 334 332 332 331 331 331 329 329 329 328 329 329 330 329 328 328 329 329 328 323 326 329 327 334 336 335
332 333 336 337 341 343 342 340 336 333 332 330 331 334 335 334 334 335 334 334 333 332 333 329 328 329 327 328 328 329 330 330 329 330 328 326 327 329 328 328 331 332 334
332 332 334 336 339 343 341 339 334 331 330 330 332 333 334 335 335 335 335 334 334 333 331 328 330 327 327 327 328 329 329 328 329 328 326 326 328 331 330 328 329 329 334
333 333 334 334 337 343 341 338 333 332 331 332 332 333 334 335 335 334 334 334 332 329 329 332 330 328 328 327 328 328 328 327 327 327 326 329 331 331 330 330 328 329 335
332 334 332 333 337 342 340 336 332 332 331 332 332 333 334 335 334 334 334 333 330 328 331 330 328 329 327 327 328 328 328 327 326 327 327 329 332 332 332 332 335 336 334
332 332 332 333 338 340 337 333 331 331 331 331 332 334 335 334 334 334 334 332 332 329 326 327 329 328 328 328 329 328 328 328 328 327 327 330 332 332 334 334 336 338 338
332 332 334 336 340 337 333 330 330 330 330 331 333 335 335 334 333 333 333 331 329 326 327 328 328 327 327 327 328 327 330 328 327 327 329 331 332 332 334 335 336 337 340
332 334 336 338 337 332 331 333 334 333 333 332 333 333 333 333 332 331 331 330 328 328 328 328 327 326 326 327 328 329 330 329 328 327 330 332 333 335 334 337 337 339 339
333 334 336 336 334 333 332 330 330 329 330 331 331 331 332 331 331 330 330 329 328 328 328 327 326 325 326 327 328 327 328 328 328 331 333 332 333 335 336 338 338 337 336
333 334 335 335 334 333 332 331 331 331 331 331 330 332 332 331 329 328 329 328 328 327 327 327 326 326 326 327 326 327 327 329 329 327 334 334 334 335 337 337 336 335 334
333 334 334 334 333 333 332 332 332 334 332 330 331 330 330 330 329 328 327 327 328 328 328 327 327 327 328 328 328 327 330 331 328 331 336 336 336 335 336 336 335 334 333

GFSSE_925_thetae_009.txt.gz
Theta_e
339 343 320 316 313 312 312 312 312 312 313 313 313 312 312 312 313 314 316 315 316 319 320 320 322 323 330 331 331 332 332 332 333 341 344 343 342 343 343 344 344 350 346
337 343 318 314 314 313 313 313 314 314 315 316 316 315 315 315 315 316 319 322 320 325 332 333 333 333 332 332 332 332 334 334 331 328 337 343 344 342 343 343 344 348 348
337 342 325 314 315 315 314 314 315 316 317 318 318 318 318 319 319 317 318 324 331 332 334 335 336 336 335 334 332 333 333 333 335 329 327 334 343 345 342 342 343 346 347
338 342 339 315 316 317 316 316 317 317 318 320 320 320 320 321 322 323 324 328 334 336 336 336 337 339 338 336 335 333 333 334 335 335 326 321 329 343 343 341 342 343 346
337 344 341 323 317 318 318 317 317 318 319 321 321 322 323 324 325 327 329 334 335 337 337 337 336 339 340 338 337 335 334 333 335 333 327 323 328 337 339 341 343 341 343
336 342 341 334 317 319 320 319 319 319 319 321 322 323 324 325 326 328 330 335 337 338 339 338 338 337 339 337 337 337 336 335 333 329 327 328 332 336 337 338 341 344 342
336 338 344 339 320 319 321 321 320 320 320 321 323 325 326 328 329 330 336 340 339 339 339 338 338 336 337 337 336 337 334 336 335 334 329 331 332 330 329 334 341 344 343
336 336 339 340 332 319 321 323 322 321 321 322 323 325 328 329 331 337 339 338 339 339 339 339 335 334 334 335 336 336 334 331 335 336 335 336 332 331 329 328 340 341 342
335 336 336 347 339 328 321 323 323 322 322 322 324 326 327 326 331 340 337 335 332 331 334 334 336 336 334 336 335 334 334 334 333 334 335 336 336 332 328 324 338 342 341
336 335 337 339 348 345 340 328 325 324 323 323 324 327 326 326 335 331 328 328 329 329 329 330 333 335 335 336 335 334 334 334 332 332 333 335 336 333 326 325 339 341 342
334 336 335 336 340 343 339 340 331 328 326 326 329 329 328 335 333 335 335 333 329 326 323 326 330 331 333 334 333 332 333 331 330 330 329 333 334 333 329 330 338 340 341
333 335 336 336 339 341 338 338 345 341 340 339 337 335 340 336 334 335 334 331 329 324 324 323 329 329 330 331 331 330 332 329 328 328 330 332 332 332 326 335 335 339 339
331 334 336 337 337 340 339 337 344 342 340 339 338 337 336 335 335 336 334 334 334 334 333 332 332 333 330 331 330 332 332 329 328 330 330 331 331 329 326 335 335 337 338
332 332 336 337 339 341 339 336 339 341 339 338 338 339 337 335 336 336 334 333 333 332 332 331 330 330 331 330 330 330 332 329 327 328 331 331 329 328 324 335 336 336 337
333 332 333 337 341 344 342 337 339 339 337 338 337 336 336 335 335 335 335 335 334 332 333 330 329 330 330 329 330 330 330 328 330 329 329 330 329 325 320 334 336 336 340
332 333 333 338 341 345 344 342 341 339 337 337 335 333 336 337 335 335 335 335 334 334 333 333 330 330 330 329 329 329 330 329 329 330 329 329 328 324 316 328 335 336 339
331 333 335 338 340 345 346 344 341 339 337 336 334 333 335 337 336 336 335 337 335 332 333 331 332 331 331 329 328 329 330 330 329 328 328 328 330 327 315 326 327 332 336
332 334 335 337 342 345 346 345 342 338 337 333 332 334 337 337 336 336 336 337 336 335 334 334 331 331 331 329 327 328 329 329 329 330 329 328 327 332 330 327 325 329 331
332 334 337 339 340 346 347 345 342 338 336 333 332 334 334 335 335 335 337 336 336 335 335 333 332 332 331 329 328 330 330 329 329 329 328 328 327 331 331 332 323 327 329
333 335 339 339 341 346 346 346 341 337 335 333 333 333 333 335 335 335 337 336 335 335 333 332 333 331 330 329 329 329 330 330 328 327 328 327 328 329 331 333 329 329 329
334 336 339 342 341 346 346 344 339 336 335 333 333 333 335 336 334 335 336 335 333 333 333 332 331 329 330 330 330 330 330 329 329 327 327 328 329 329 332 332 335 334 337
336 339 340 339 343 345 345 341 337 335 334 333 332 334 336 335 335 334 335 333 333 333 331 330 330 329 329 330 330 330 333 330 328 327 328 327 330 331 332 333 331 336 340
337 339 339 339 342 345 341 337 334 334 334 334 333 334 334 334 333 334 333 332 332 331 330 330 329 329 329 328 329 330 332 330 328 328 328 330 331 333 332 333 336 337 339
338 339 340 342 343 340 335 335 336 335 332 332 334 331 332 333 332 331 332 332 331 330 330 330 329 328 328 329 329 330 330 329 332 331 330 330 332 333 335 335 336 337 338
338 339 342 342 338 336 336 335 333 331 332 332 331 333 334 334 332 330 331 330 329 330 330 330 329 328 328 329 330 329 328 329 326 335 331 333 333 333 336 335 338 338 338
338 341 340 338 338 336 335 335 334 333 332 331 332 332 333 332 331 330 329 329 329 330 330 329 329 328 330 331 329 329 328 329 329 329 336 338 335 336 335 338 337 336 336

GFSSE_925_thetae_012.txt.gz
Theta_e
344 326 321 320 319 314 312 311 311 311 312 312 312 312 311 312 313 314 314 314 315 316 316 316 319 322 327 330 331 331 331 330 323 334 343 344 342 343 342 344 343 346 342
345 326 320 319 316 313 313 312 312 313 314 315 315 315 314 314 314 317 319 320 322 326 329 328 326 329 331 331 332 332 332 333 332 328 330 342 344 342 343 342 344 348 346
344 328 321 317 315 314 313 313 314 314 316 317 318 317 318 318 319 318 320 326 328 332 334 335 336 335 334 334 333 332 333 332 333 333 328 323 339 345 342 342 342 346 347
344 335 322 315 315 315 315 314 315 316 317 318 319 320 321 323 324 325 325 325 332 335 335 335 336 338 338 336 334 334 333 333 334 334 331 323 321 336 342 341 341 342 346
344 340 330 315 315 316 316 315 316 317 317 319 320 321 323 325 327 328 329 332 335 336 337 337 337 336 340 339 338 336 335 333 334 334 330 327 324 332 341 340 340 341 343
345 343 339 316 316 317 317 317 317 318 318 319 321 322 323 324 326 328 331 334 336 337 338 339 339 337 336 338 336 336 337 336 335 333 330 327 328 338 338 337 341 343 342
340 345 343 335 316 317 318 319 318 318 319 320 321 322 323 325 326 328 331 337 340 340 340 340 339 338 336 337 337 336 335 335 335 335 336 329 331 331 331 329 336 341 342
337 341 344 341 328 318 319 320 320 319 320 320 321 322 324 325 328 331 334 338 339 339 339 339 339 337 334 334 334 336 336 333 334 335 336 336 336 332 331 328 327 339 342
336 337 342 340 338 326 319 321 321 321 320 321 322 323 324 325 326 329 337 337 333 330 329 330 334 336 335 334 334 335 335 334 330 333 334 336 337 333 330 329 324 337 340
333 337 340 338 336 336 327 322 323 323 322 322 323 324 325 326 325 329 332 329 329 329 329 328 325 331 334 334 334 334 334 335 331 331 332 334 333 335 334 329 322 337 339
331 336 341 341 342 335 338 337 325 324 325 325 326 326 327 326 333 335 338 335 334 331 328 323 320 322 328 333 333 333 333 331 331 332 328 331 334 335 334 330 321 337 339
330 332 337 344 343 344 343 341 338 325 328 329 331 332 334 333 336 336 335 335 333 331 329 324 323 322 328 331 330 329 334 333 330 330 331 332 333 334 333 330 321 331 339
329 331 334 337 342 344 343 339 339 340 340 338 338 338 337 340 338 336 336 335 334 332 333 333 331 329 333 332 333 333 332 333 330 329 331 332 332 333 334 328 322 325 336
330 330 334 337 338 341 343 341 345 345 343 342 340 339 337 338 336 334 335 334 335 335 333 334 332 333 333 331 331 330 332 333 332 328 331 331 331 331 330 328 325 328 334
330 331 332 340 337 338 343 340 345 346 344 342 341 339 339 339 335 336 338 336 334 335 334 333 330 330 330 330 329 330 330 331 332 330 331 331 330 329 328 332 332 332 335
332 332 335 341 338 338 340 341 339 342 343 341 339 340 339 337 336 336 336 336 336 334 332 333 333 331 330 330 329 329 329 329 331 330 331 331 329 329 327 324 329 332 335
330 332 334 339 340 341 342 339 344 341 341 340 339 338 336 335 337 336 336 336 337 335 332 333 332 332 330 331 331 329 328 329 330 329 329 331 329 327 328 316 316 329 335
330 333 336 335 343 343 347 344 343 342 341 340 338 335 333 337 337 337 337 336 337 335 334 332 330 329 329 330 331 328 329 330 329 329 329 329 326 329 329 317 318 325 326
330 333 334 336 345 347 350 348 343 344 342 339 336 335 335 337 337 337 335 335 337 335 334 333 333 331 331 329 330 328 329 329 329 330 330 327 328 330 332 331 327 325 325
331 331 332 338 345 350 351 348 347 345 342 337 335 334 336 336 336 335 335 335 337 335 334 332 332 331 330 329 330 329 329 330 330 329 328 329 329 326 330 331 333 324 326
332 335 340 342 348 351 350 349 348 344 340 337 335 335 334 336 336 336 334 337 335 334 333 332 331 331 331 330 329 330 329 329 330 329 327 328 326 328 327 331 332 323 325
338 341 343 344 350 351 349 349 347 343 338 337 334 334 335 336 336 335 334 335 333 332 332 331 330 330 328 327 328 330 331 329 329 330 327 327 326 328 329 331 334 333 331
341 342 345 345 346 350 348 347 343 339 337 336 336 336 336 335 334 333 333 333 331 331 330 330 330 329 331 328 327 327 330 331 329 328 329 328 329 331 330 331 331 334 333
343 342 342 343 349 346 347 345 339 336 338 335 334 335 335 334 333 333 332 332 332 330 330 330 330 329 329 329 328 327 328 328 329 331 329 329 328 330 331 333 333 334 335
342 342 343 345 346 346 341 338 336 336 337 334 332 334 332 334 334 332 332 331 329 330 331 330 330 328 328 328 329 328 328 327 328 330 330 331 330 331 330 330 331 334 336
342 344 347 346 345 339 338 337 335 336 334 333 331 334 335 333 333 332 329 328 329 330 330 330 328 327 328 326 327 327 328 328 328 328 328 330 331 331 331 333 332 333 334

GFSSE_925_thetae_015.txt.gz
Theta_e
333 322 320 320 318 315 314 313 312 311 312 313 313 312 312 312 312 312 312 312 312 312 314 317 317 317 321 328 329 329 325 321 321 323 340 344 342 344 342 342 345 347 340
331 322 320 320 317 315 315 314 314 312 314 315 315 314 314 314 315 315 315 315 316 318 319 323 327 328 327 328 331 331 331 329 325 319 317 337 343 342 342 341 345 347 341
333 322 321 320 317 315 314 314 315 313 316 317 316 316 317 317 317 318 319 320 323 329 331 332 330 332 334 332 332 331 332 330 329 329 321 314 338 342 342 341 342 346 344
334 323 321 320 316 315 315 315 315 315 317 318 318 318 319 320 321 321 321 323 329 333 334 334 334 335 337 337 335 334 332 332 333 333 324 314 315 323 337 341 341 342 346
334 324 323 321 315 314 316 316 316 316 317 318 319 319 321 322 324 325 327 327 331 335 336 337 336 336 337 339 338 336 334 332 334 334 323 327 327 327 334 339 341 339 344
340 329 322 318 315 314 316 316 316 317 317 319 320 320 322 323 325 327 329 332 335 335 337 338 339 338 337 337 337 336 336 334 335 331 329 329 330 339 340 338 340 339 340
340 339 326 318 315 315 316 317 317 317 318 319 320 320 322 323 324 326 328 331 337 339 340 340 340 337 336 336 337 336 333 334 334 332 334 335 337 332 332 332 335 341 341
337 340 333 322 317 317 317 318 317 318 318 319 320 321 321 322 323 323 326 333 336 339 338 338 337 337 336 334 334 335 334 330 333 334 334 335 336 334 331 331 327 332 341
337 338 340 330 320 318 318 319 318 318 319 319 320 321 322 322 323 323 322 330 335 333 328 326 328 330 333 331 333 333 335 332 329 327 334 334 336 334 331 329 328 326 337
340 337 341 339 332 319 318 319 319 320 320 320 321 322 323 324 322 322 331 332 331 330 330 330 328 326 325 331 331 334 334 335 333 327 324 333 335 335 333 331 329 323 336
339 340 342 341 336 332 320 319 320 321 321 322 322 323 325 326 323 324 333 336 335 334 332 329 324 320 321 328 330 333 335 334 332 328 324 325 332 334 334 333 330 319 334
330 340 339 341 337 335 331 321 320 321 323 325 324 324 325 326 324 330 335 336 335 334 331 330 329 323 324 326 327 332 332 327 331 330 329 330 329 333 335 333 330 320 327
330 335 342 338 337 337 337 333 325 321 323 328 326 325 326 328 333 335 334 334 334 334 332 332 332 328 328 331 331 331 332 330 328 330 328 330 331 332 333 333 329 322 322
331 329 342 339 340 340 340 336 331 329 327 326 328 328 331 335 339 338 337 337 336 336 334 333 333 333 332 332 332 331 332 332 333 332 330 329 332 332 332 332 328 326 322
330 330 332 340 340 342 343 341 339 337 337 335 332 333 335 336 338 337 334 335 335 335 334 333 333 332 332 332 331 330 331 331 332 332 331 331 331 330 331 330 330 330 328
330 330 333 337 341 344 343 341 340 340 340 339 341 339 338 337 338 335 336 338 337 335 335 334 333 332 331 330 330 329 328 329 330 330 331 331 330 330 329 329 332 335 335
331 329 332 337 339 342 343 341 342 343 342 343 342 340 339 338 338 335 337 336 336 336 335 334 332 333 332 330 330 330 329 328 329 329 330 331 330 329 328 328 326 333 335
331 328 331 336 338 338 343 342 343 343 345 345 342 341 340 339 337 335 337 336 335 337 337 334 332 332 331 330 329 331 330 329 329 328 328 330 330 328 327 328 322 323 335
329 328 331 336 338 339 340 343 344 342 343 342 341 338 337 336 336 336 335 335 334 337 337 334 333 333 331 330 329 330 329 328 329 329 329 330 329 327 329 330 327 315 328
329 329 332 335 338 341 344 343 344 344 342 340 339 337 335 334 335 336 336 336 336 337 335 333 333 332 333 331 329 328 328 329 330 329 329 330 327 327 329 328 331 329 324
327 328 331 337 343 348 349 347 344 345 342 340 337 336 335 336 336 337 336 334 336 335 333 333 333 332 331 329 329 328 329 329 329 329 329 329 328 328 329 329 331 331 327
329 333 337 341 347 350 349 348 345 345 341 338 336 335 335 336 336 335 335 333 334 333 332 331 331 331 329 328 328 327 328 327 328 329 329 327 328 328 327 328 328 331 329
340 344 347 348 350 350 349 347 346 344 339 337 336 334 334 334 335 334 333 332 332 330 330 330 329 329 328 327 327 326 328 327 324 327 329 328 328 327 326 329 330 332 331
345 346 349 352 350 349 349 347 345 339 338 337 337 336 335 336 334 333 331 331 331 330 330 330 329 329 329 327 327 326 326 327 325 325 329 329 329 328 328 329 329 331 332
344 344 343 348 349 348 347 345 343 339 337 335 335 335 335 334 333 332 331 330 329 330 330 329 329 329 328 327 327 327 326 326 326 326 324 326 329 329 328 328 328 331 332
343 343 346 348 346 347 345 339 335 336 335 335 333 333 334 334 333 331 329 328 329 329 329 330 328 327 327 328 327 327 327 324 326 325 323 323 326 329 328 328 329 329 331

GFSSE_925_thetae_021.txt.gz
Theta_e
335 326 323 322 319 314 313 311 312 314 313 312 312 311 311 310 310 310 310 310 310 311 312 312 312 313 314 314 315 316 316 313 313 321 338 343 343 343 342 341 340 341 344
335 331 321 321 317 313 312 312 312 314 314 313 313 312 312 312 312 311 311 311 311 311 312 313 316 316 319 321 323 321 321 324 322 315 316 335 342 343 342 341 341 339 344
334 327 322 319 315 314 313 312 313 315 314 314 314 314 314 314 314 313 312 311 310 312 315 318 322 326 326 327 329 327 325 324 322 326 328 319 332 339 343 341 341 342 341
336 326 320 317 315 314 314 314 314 315 315 314 315 315 315 315 316 316 316 315 314 315 319 322 324 329 333 335 335 334 330 327 328 332 328 318 316 328 328 342 339 341 339
337 326 320 317 315 315 316 315 314 315 315 315 316 316 316 317 318 318 319 320 321 321 329 331 333 333 334 336 338 336 333 331 329 333 329 320 318 324 326 336 339 339 343
332 325 320 318 316 316 316 316 315 316 316 316 316 317 317 318 319 320 320 322 324 333 335 335 337 337 337 337 336 337 337 334 333 331 329 325 331 334 329 330 338 339 339
330 326 322 320 316 316 316 316 315 316 316 316 317 317 318 318 320 320 321 322 326 335 336 337 338 337 339 338 337 337 333 335 336 334 331 330 333 336 337 332 338 337 338
332 327 323 320 317 316 316 316 316 315 317 317 317 317 318 319 320 321 321 323 327 332 336 339 339 338 337 336 335 334 335 336 335 332 332 331 333 334 340 337 335 335 337
334 329 326 321 319 316 316 316 316 316 316 317 317 318 318 320 320 321 321 322 327 333 336 335 336 336 335 331 331 334 334 337 337 332 327 330 333 335 335 332 330 330 329
336 331 328 325 321 316 316 316 316 316 316 317 318 318 319 320 321 322 322 322 326 331 331 330 329 331 333 331 328 329 329 336 337 336 331 326 330 335 336 332 330 329 328
340 335 331 326 323 319 316 316 316 316 317 317 318 319 320 321 322 322 322 322 328 332 332 331 330 329 329 328 326 329 334 333 334 335 332 330 326 329 337 334 331 330 329
341 340 335 331 327 323 320 318 317 316 317 317 318 320 322 322 323 323 323 323 330 334 334 333 331 330 327 325 325 331 333 332 332 331 330 328 329 327 330 334 332 331 331
334 340 339 337 333 328 324 322 321 319 318 319 319 320 323 324 325 326 324 324 331 334 335 334 332 330 329 327 328 326 325 327 329 329 328 326 327 328 332 335 333 332 332
328 332 337 339 338 334 329 326 324 324 320 320 321 322 324 326 326 327 326 324 333 334 334 335 333 331 330 330 329 330 330 330 331 331 331 330 330 325 332 336 334 332 330
324 327 334 337 339 339 334 329 328 326 322 322 326 324 324 326 326 327 327 327 333 333 334 334 334 332 331 332 331 330 331 331 331 331 331 331 332 328 328 331 335 331 331
327 328 327 332 336 341 339 333 329 330 327 327 330 330 327 326 325 327 326 332 334 335 335 334 333 333 332 332 331 330 331 331 329 330 329 331 331 329 329 330 333 330 330
326 326 326 326 330 339 341 339 335 332 331 331 331 332 330 329 326 327 327 334 335 333 334 335 333 332 333 332 331 330 331 329 329 329 328 330 329 329 330 330 329 330 330
325 325 327 327 329 334 340 340 339 337 335 333 333 333 332 330 326 328 329 335 336 334 337 335 333 333 333 332 331 330 330 329 329 329 328 329 329 329 330 329 328 328 328
325 325 325 326 328 331 340 341 339 339 338 337 336 335 332 329 329 329 332 336 335 336 336 335 334 334 334 333 332 331 331 330 329 329 328 328 328 329 330 329 327 327 327
324 325 325 327 329 336 341 341 339 339 339 339 338 336 333 333 331 334 335 336 336 335 335 335 335 335 333 331 330 330 330 329 328 328 328 328 328 329 329 329 327 328 328
325 326 326 328 332 339 342 341 339 340 340 340 340 339 338 338 339 336 337 336 336 335 334 335 335 333 332 330 329 329 329 329 328 328 328 328 328 329 329 329 327 328 329
326 327 326 328 330 336 340 340 340 340 339 340 340 340 340 341 339 338 337 335 335 335 335 335 333 331 330 329 326 324 323 325 327 328 328 328 329 328 328 328 327 328 329
325 326 326 328 329 335 339 341 341 340 338 339 340 341 341 340 339 338 334 335 336 335 334 332 330 329 329 327 327 324 322 322 323 325 327 328 328 328 328 328 327 328 327
321 323 325 327 332 339 341 341 340 338 336 335 338 339 337 336 338 335 336 335 334 333 331 329 328 329 328 327 326 326 324 324 324 324 325 326 328 328 327 327 328 326 327
320 325 330 334 339 342 343 341 340 336 336 336 336 336 335 334 336 336 335 333 331 329 328 328 328 328 328 328 326 324 325 325 325 323 325 323 327 328 327 327 326 327 328
341 343 343 344 344 344 343 341 340 337 335 334 334 335 335 335 334 333 331 330 326 327 328 328 328 328 328 327 327 325 324 323 323 325 323 320 323 326 327 327 328 328 327

GFSSE_925_thetae_024.txt.gz
Theta_e
334 324 324 322 319 317 316 314 314 315 314 314 313 314 314 315 316 317 318 318 318 317 315 313 311 311 311 312 312 311 311 311 315 322 339 343 343 343 342 341 340 342 343
335 325 323 322 318 315 314 312 314 314 313 312 312 311 311 311 310 310 310 310 310 310 311 311 311 312 314 316 319 319 319 317 313 311 318 339 342 342 342 341 341 341 341
334 325 322 321 318 315 313 312 313 313 313 312 312 312 312 312 311 311 311 310 310 311 314 316 317 319 321 323 323 323 323 325 324 323 319 316 338 341 342 342 341 338 339
334 331 320 320 317 315 313 312 314 314 313 313 313 313 313 313 313 313 312 312 311 314 320 323 325 327 325 326 328 327 326 326 328 331 327 316 318 334 338 341 342 341 339
334 333 320 319 317 315 313 313 314 314 314 314 314 315 315 315 315 315 316 316 315 317 328 330 329 330 332 334 333 332 331 330 329 331 328 322 314 323 326 337 342 339 342
336 331 321 318 317 315 314 313 314 315 314 315 315 316 316 316 316 317 318 319 321 323 332 333 334 335 335 335 335 336 337 336 334 332 330 325 323 330 333 327 339 339 340
337 333 322 318 317 316 315 314 314 315 315 315 316 316 317 317 317 318 319 321 323 327 334 336 336 337 338 338 338 338 334 333 338 334 333 328 329 332 336 327 328 336 338
337 334 325 319 317 316 315 315 314 315 315 316 316 317 317 318 318 319 320 322 326 329 330 334 335 335 336 335 336 336 336 337 337 335 333 331 330 333 338 335 335 335 336
336 333 328 323 318 315 315 315 315 315 316 316 316 317 317 318 319 319 319 322 326 331 331 332 335 335 332 332 332 334 335 336 337 335 333 329 331 333 335 336 334 333 331
336 333 329 326 322 317 316 314 314 315 315 316 317 317 318 319 319 320 321 322 325 331 332 331 331 330 329 329 330 331 332 334 336 337 336 332 326 332 335 335 331 329 329
339 337 334 330 329 324 319 318 315 315 315 316 317 318 318 319 320 322 322 322 324 330 332 331 330 330 329 327 325 326 333 333 332 334 335 333 330 327 333 336 334 330 329
340 339 336 333 330 328 326 321 321 317 316 316 317 318 319 319 320 322 322 322 323 330 332 332 331 330 329 327 326 325 329 330 332 331 331 330 331 329 327 334 333 331 330
336 339 338 337 332 329 328 327 323 321 318 318 317 318 320 321 321 323 323 323 323 330 333 334 333 331 330 329 328 328 325 325 326 328 328 328 327 326 328 328 332 331 331
328 330 337 338 338 333 331 330 326 326 322 321 320 321 322 323 324 325 324 324 323 328 333 334 334 333 331 330 330 329 329 327 329 330 331 331 330 329 329 330 331 331 331
324 326 327 330 334 337 335 333 330 327 325 323 324 324 325 326 323 324 324 325 324 327 333 334 335 334 332 331 331 331 330 330 330 330 330 330 330 330 329 333 336 330 331
323 324 325 326 328 337 338 336 334 330 329 329 326 326 329 328 325 323 324 326 325 328 333 334 334 334 333 331 331 331 331 330 331 330 329 330 329 330 329 328 331 334 330
324 324 324 324 325 333 336 338 336 333 331 330 329 329 325 329 326 323 323 326 325 329 333 334 334 333 333 332 332 332 331 330 331 329 329 328 328 330 329 328 328 329 330
322 323 323 323 323 326 331 335 337 333 332 331 330 330 330 332 330 324 324 326 325 329 335 333 334 334 332 333 333 332 331 330 330 329 329 328 328 329 329 328 328 328 329
322 323 323 323 323 324 329 336 338 336 334 333 333 333 334 334 331 327 326 325 325 333 335 334 335 333 333 333 333 333 331 331 330 330 329 329 328 328 329 329 329 328 327
323 322 322 323 323 323 330 337 339 338 337 335 335 334 334 334 332 330 328 328 327 336 335 336 334 334 333 334 332 330 329 330 330 330 329 328 328 328 328 330 329 327 326
321 321 323 323 324 325 336 338 339 338 338 338 337 336 336 335 333 331 331 328 333 335 335 334 334 334 333 331 326 328 328 329 329 329 328 328 327 328 328 329 329 327 327
320 321 324 325 325 328 334 338 338 338 338 338 338 338 338 337 333 332 331 332 335 335 334 334 334 333 331 329 327 323 327 325 326 327 327 327 327 328 328 328 328 327 327
319 321 322 323 325 330 337 339 339 339 338 338 338 339 338 337 336 335 335 335 336 335 334 334 334 331 329 327 327 325 325 327 323 324 327 328 328 328 328 328 327 327 328
318 320 320 322 325 330 337 339 338 337 335 337 338 339 339 338 338 338 337 336 335 335 335 333 331 329 328 326 325 326 323 322 326 327 325 326 327 327 327 327 327 327 327
319 324 320 320 324 333 337 339 339 338 337 338 339 339 339 338 339 338 337 334 335 334 332 329 328 328 328 327 326 324 325 324 324 326 327 324 325 326 326 326 327 327 326
337 339 337 334 336 338 339 339 339 338 335 335 337 338 336 335 336 335 335 335 333 330 327 327 328 327 327 327 327 325 324 323 324 326 326 322 324 325 326 326 327 326 328

GFSSE_925_thetae_027.txt.gz
Theta_e
337 339 325 323 322 319 317 316 316 316 317 319 324 325 327 323 320 317 317 317 319 321 322 321 319 316 314 313 312 312 311 313 317 326 342 343 343 343 342 341 342 345 343
337 341 324 321 320 317 316 315 315 315 315 315 316 316 316 316 317 316 316 317 317 314 312 311 312 314 317 320 317 316 316 313 311 312 322 340 342 342 342 341 341 345 341
336 329 323 320 319 316 315 314 315 314 314 313 314 314 313 313 312 312 311 310 310 310 312 315 316 319 321 322 322 322 322 321 318 316 311 324 334 341 342 342 344 340 340
334 325 325 320 318 316 314 313 314 314 313 313 312 312 312 311 311 311 311 311 311 311 316 323 324 323 324 325 324 325 325 325 325 325 326 324 324 335 340 341 344 340 338
333 326 321 320 319 316 314 312 314 313 313 312 312 312 313 312 312 313 313 312 314 314 316 324 325 325 325 329 331 331 331 331 328 330 331 328 322 327 331 337 342 341 341
333 330 322 319 319 316 314 312 313 314 313 313 313 313 314 314 314 314 315 316 319 322 327 329 328 330 329 330 333 335 337 337 333 335 334 332 326 326 330 329 339 341 340
336 335 328 319 319 316 314 313 313 314 314 314 314 314 315 315 316 316 317 319 322 331 334 333 332 334 335 335 336 337 336 334 337 338 337 336 330 330 330 331 326 338 338
337 335 334 322 320 317 315 313 313 314 314 314 315 315 316 316 317 317 319 320 323 328 334 336 335 335 335 335 335 335 334 334 337 337 337 336 331 332 333 332 327 332 335
339 337 334 335 322 318 315 314 313 314 315 315 315 316 317 317 318 318 319 321 323 328 332 333 334 335 336 334 333 331 331 333 337 337 336 334 331 331 333 336 335 336 335
339 340 340 336 338 337 333 315 314 313 314 315 315 316 317 318 318 319 319 320 323 328 331 331 331 331 330 329 329 328 328 328 334 335 337 336 329 328 335 336 334 332 331
340 338 335 333 334 337 337 335 315 314 314 316 316 316 318 328 328 328 326 322 322 328 330 330 331 331 330 328 326 325 326 331 331 332 333 336 333 327 330 335 334 331 330
342 341 338 335 332 335 336 336 334 335 326 324 325 328 327 334 334 333 332 322 323 328 331 332 331 331 331 334 333 328 331 332 331 331 331 332 331 330 327 332 335 333 330
330 338 338 338 336 337 337 336 334 336 334 332 334 333 334 336 334 333 334 333 334 330 338 337 338 337 336 335 333 332 331 329 330 331 331 327 327 326 327 328 332 333 332
328 327 331 333 337 337 336 337 336 335 335 333 335 335 334 334 334 334 334 334 336 334 337 339 339 339 337 335 333 332 332 331 331 333 333 330 330 330 328 333 329 332 330
326 326 325 326 327 333 337 338 337 335 335 333 334 335 331 332 331 333 333 329 328 330 334 338 338 338 337 335 334 333 333 333 333 333 333 330 330 330 329 331 334 334 331
325 324 325 325 325 327 330 335 336 335 335 335 334 334 333 331 332 333 333 329 322 323 331 336 338 338 337 335 334 333 334 334 333 333 333 333 330 329 330 329 333 335 335
326 324 324 323 323 323 325 328 335 336 336 336 335 334 335 330 333 332 332 326 324 323 323 330 334 337 336 335 334 334 334 335 334 333 333 332 331 329 330 329 328 330 335
323 323 322 322 321 322 323 325 335 337 336 336 336 335 336 336 335 333 329 328 323 323 325 331 335 336 335 336 335 335 335 334 334 333 332 332 331 331 330 329 328 328 330
321 321 321 322 321 322 323 327 337 337 336 336 336 336 337 337 335 333 328 325 321 324 328 333 335 335 335 336 336 335 335 334 333 332 332 332 332 331 331 331 328 328 327
320 321 321 321 321 321 326 334 339 339 336 336 336 336 337 337 335 334 332 329 325 331 331 333 335 336 335 336 335 332 332 332 332 332 333 332 331 331 331 332 331 330 328
322 321 321 320 320 323 335 337 339 339 338 337 337 338 338 337 335 336 334 333 332 332 330 336 335 335 336 333 331 331 331 331 332 332 332 332 331 331 331 329 330 332 329
321 319 319 320 320 323 334 338 339 339 340 339 338 338 338 338 338 337 336 334 333 332 337 335 334 334 334 331 332 330 332 331 330 330 331 331 331 331 331 329 329 329 330
323 320 321 319 320 322 333 339 339 340 338 339 339 340 339 339 338 337 336 332 329 334 335 335 334 336 334 330 328 331 331 331 329 329 330 331 331 330 331 329 328 328 330
322 322 318 318 319 323 337 339 340 340 339 339 338 340 340 339 338 336 333 331 334 337 335 335 335 335 333 331 327 328 327 327 330 331 329 329 330 331 329 331 330 328 330
320 325 335 331 324 330 338 340 341 341 341 341 340 340 342 339 338 336 335 336 337 336 335 335 334 332 330 330 329 328 328 328 328 330 331 329 327 327 327 329 330 331 331
334 338 338 337 334 335 338 340 341 341 340 340 340 340 340 340 339 338 337 337 336 336 335 333 332 331 330 329 329 328 328 328 328 329 330 328 328 325 327 326 330 331 331

GFSSE_925_thetae_030.txt.gz
Theta_e
341 347 324 322 321 320 318 318 323 336 342 347 349 348 348 347 344 340 334 328 323 320 319 319 319 319 318 316 314 313 314 316 320 332 341 343 344 343 342 343 343 347 343
341 345 322 320 321 319 318 317 318 324 330 341 343 344 342 339 332 325 319 318 320 320 320 318 314 312 313 312 312 312 312 311 310 313 325 340 342 343 343 342 343 346 342
342 343 327 321 320 318 318 316 315 316 319 324 326 327 327 322 318 317 318 319 319 315 317 317 314 315 322 322 318 318 317 316 315 311 309 323 335 341 342 343 342 345 341
344 344 338 321 320 318 317 315 315 315 316 316 317 317 317 316 316 315 315 314 314 323 325 321 325 329 328 327 326 325 324 322 321 317 324 321 323 335 341 341 344 340 340
346 345 339 321 319 317 316 314 315 315 315 314 315 315 314 313 312 311 311 311 316 329 330 331 330 327 326 328 327 330 330 328 325 328 328 326 322 324 339 340 342 341 339
345 344 340 322 320 318 316 314 315 315 314 314 313 313 312 312 312 312 313 314 315 324 328 332 330 327 328 330 335 337 338 337 331 335 332 331 324 324 331 333 340 344 342
344 344 344 328 320 319 316 315 314 315 314 313 313 313 313 313 313 314 315 316 317 322 331 333 331 331 331 333 334 336 335 331 338 338 337 335 329 326 325 332 331 339 340
343 344 343 331 322 320 317 315 314 314 314 313 313 313 314 314 314 315 316 318 321 326 332 332 331 333 334 335 337 338 335 334 337 337 338 338 335 326 328 327 332 328 337
345 347 346 345 334 322 318 315 313 313 314 314 314 314 314 315 316 316 318 319 323 329 331 333 333 334 335 337 335 334 334 333 336 337 336 336 334 328 332 335 332 330 335
345 345 345 344 342 338 336 317 314 313 314 314 314 315 315 316 317 318 318 320 323 328 330 332 333 334 335 333 331 330 329 328 331 334 336 336 334 328 332 338 337 336 335
342 344 345 344 343 340 336 336 321 317 314 315 316 316 317 329 331 330 328 330 323 329 331 333 333 332 331 329 328 327 326 333 333 333 333 335 336 329 329 336 335 333 330
340 342 344 346 344 343 338 336 341 336 335 333 332 332 331 331 332 331 331 330 326 328 331 332 333 333 332 335 336 332 333 334 333 332 332 332 332 332 328 332 335 333 331
332 332 340 344 346 344 341 338 339 340 337 336 335 333 333 331 332 333 333 334 333 331 337 336 338 338 337 336 334 333 333 332 331 331 331 330 327 328 331 330 332 334 332
330 331 332 343 347 348 344 342 341 340 340 338 337 336 335 334 335 334 333 335 333 334 334 339 339 339 339 337 335 334 334 334 332 333 334 332 329 327 327 331 332 330 333
330 331 332 336 345 348 348 344 344 342 340 340 338 338 337 335 335 336 333 333 335 333 335 338 338 339 339 338 336 335 335 334 334 334 333 334 330 330 329 330 334 334 334
330 331 332 333 336 345 346 347 345 345 342 341 340 337 340 336 336 335 334 334 333 334 333 335 338 338 339 337 337 336 336 335 335 334 333 334 331 329 328 330 334 335 335
330 331 333 334 336 342 342 343 343 342 343 341 341 340 339 340 335 335 335 334 332 333 334 334 337 340 337 336 336 337 337 336 335 335 335 334 334 332 328 329 330 333 336
332 331 331 331 329 332 336 337 339 339 340 341 340 341 340 341 338 337 333 334 331 332 333 331 337 335 337 336 337 336 337 335 335 335 335 334 333 333 332 329 329 328 331
328 330 331 331 331 332 332 336 338 340 341 340 340 341 341 341 341 337 336 333 332 332 332 333 333 335 336 339 337 338 337 334 333 334 334 334 334 334 333 332 330 327 328
327 328 330 330 331 335 334 336 339 340 341 341 340 340 341 341 341 339 337 334 334 332 332 331 334 336 340 337 337 335 334 334 332 333 333 333 333 334 334 333 333 329 328
325 328 330 332 335 336 333 336 340 340 342 341 340 341 341 341 341 340 338 337 335 332 331 334 336 339 337 338 337 333 332 332 333 332 332 333 333 333 333 333 332 333 330
327 328 330 332 333 337 334 338 339 342 342 342 341 341 342 341 341 340 339 338 337 333 333 336 337 338 339 337 336 334 333 331 332 332 332 332 332 333 333 333 332 333 333
326 328 329 331 334 335 335 338 344 343 344 344 343 343 341 342 342 341 341 340 338 334 335 336 340 337 336 336 336 333 332 331 331 331 332 332 332 334 334 333 332 333 334
324 325 327 330 331 332 336 338 343 343 343 343 343 341 343 343 342 340 340 340 338 334 335 340 338 336 338 336 333 331 330 329 330 334 332 332 332 333 334 333 332 331 329
322 324 325 329 336 336 338 340 344 343 344 345 343 344 342 340 341 341 340 338 336 336 341 338 338 338 337 332 330 330 330 329 329 331 334 333 332 332 332 333 333 329 325
323 324 330 340 342 338 339 343 345 345 345 345 346 341 341 341 341 341 340 340 340 340 340 338 337 336 334 330 329 329 329 330 329 331 334 332 333 331 331 331 334 332 330

GFSSE_925_thetae_033.txt.gz
Theta_e
344 347 323 321 321 320 320 321 327 336 340 345 347 347 347 346 346 345 343 341 337 333 328 323 320 319 318 316 315 315 316 318 321 331 339 343 344 343 343 345 344 347 343
342 348 321 320 320 318 318 319 327 332 340 343 345 347 346 346 345 342 339 333 325 322 322 321 321 319 316 316 314 314 312 311 311 315 325 336 341 343 343 343 344 347 343
344 347 324 320 320 318 317 318 321 331 337 340 343 344 345 343 340 332 324 320 322 322 321 315 315 317 320 318 317 318 318 316 313 309 309 326 342 339 343 342 343 345 341
346 346 338 320 320 319 316 316 317 325 333 334 339 339 336 333 328 320 319 319 319 315 320 325 325 326 324 324 322 321 322 323 320 314 323 320 322 331 341 341 342 342 340
346 346 341 320 320 319 317 316 316 319 322 326 331 330 326 322 318 318 318 317 313 319 327 329 331 327 326 327 326 326 327 326 322 324 330 326 324 328 330 341 342 341 339
346 346 343 323 320 319 318 316 316 316 317 319 321 321 318 317 316 316 314 312 315 326 332 333 331 327 331 332 331 334 336 333 329 340 334 332 325 329 323 337 341 345 343
345 345 344 336 321 320 319 316 315 315 316 316 316 316 316 315 315 313 312 313 318 330 334 334 332 329 328 328 329 332 333 331 336 339 337 336 332 328 324 330 334 339 343
343 344 348 342 325 321 319 317 315 315 315 315 314 314 314 313 313 313 314 315 319 327 333 335 334 332 332 333 336 338 338 334 337 337 337 338 337 333 319 322 332 332 339
341 344 347 351 335 324 321 318 315 314 315 315 314 314 313 313 314 314 315 317 320 327 333 335 334 333 334 334 335 337 337 336 337 337 338 336 338 334 327 328 329 331 331
341 343 344 351 343 340 338 323 317 315 314 315 314 314 314 314 315 315 316 318 320 325 332 334 333 334 334 336 335 332 331 330 332 333 335 337 336 334 326 335 340 338 335
340 342 344 346 347 342 338 340 323 318 315 315 315 314 314 328 330 329 326 328 321 326 331 331 331 331 333 331 328 327 326 333 334 335 334 337 337 336 327 334 339 339 338
339 341 344 346 347 346 340 339 341 338 335 333 331 331 330 329 330 331 330 327 329 326 330 329 327 328 332 337 338 332 335 335 336 334 334 335 334 333 330 329 336 335 333
337 339 340 348 349 347 344 340 344 343 339 337 335 333 334 330 331 333 332 332 335 331 334 335 337 338 337 338 335 337 335 334 332 332 334 333 331 329 330 330 334 335 333
334 333 334 338 352 351 346 343 340 342 344 340 339 336 335 335 333 334 333 335 335 334 335 337 338 338 337 340 337 335 335 335 333 333 334 333 332 325 324 335 336 334 333
333 333 334 335 347 352 351 345 344 343 343 344 342 340 339 336 335 335 335 334 337 334 335 337 339 340 342 340 338 337 336 335 335 334 334 335 334 329 328 330 335 335 335
333 333 332 334 340 351 351 348 348 347 343 344 343 343 341 338 338 337 337 336 335 336 335 335 338 339 340 340 339 337 337 336 336 335 335 335 334 331 328 328 334 337 336
332 333 333 335 338 343 347 351 349 344 347 344 343 343 345 342 339 339 339 338 335 336 335 336 337 338 339 340 337 338 338 337 337 336 336 334 335 334 331 328 328 333 336
332 333 334 334 334 337 346 348 346 342 342 342 343 343 345 345 343 342 339 338 337 335 336 336 336 335 340 337 336 338 339 338 337 337 335 334 335 334 334 333 329 329 334
333 334 335 334 334 335 338 339 340 341 341 340 340 342 344 345 345 343 341 338 338 336 335 335 334 336 337 337 337 339 340 339 336 335 334 334 333 334 335 333 331 329 328
331 332 332 333 332 335 336 337 338 337 339 341 341 342 343 346 345 345 343 340 338 337 335 334 334 336 335 336 337 340 338 337 336 332 332 332 334 335 334 334 332 332 327
328 330 332 334 336 335 334 335 334 334 338 343 344 343 343 345 345 345 343 342 340 337 336 335 335 336 337 338 338 339 338 335 334 334 331 333 333 334 334 334 333 334 330
330 330 331 334 336 339 336 336 333 337 340 343 344 344 344 345 345 345 343 342 340 338 338 337 336 336 336 341 340 336 335 331 333 334 332 332 334 333 333 334 334 334 332
330 331 331 333 335 338 336 337 339 342 345 344 345 345 346 345 345 344 343 343 342 339 338 337 338 337 339 341 339 336 333 334 335 333 333 332 333 333 333 334 334 334 332
329 328 330 332 335 338 341 337 337 342 343 344 346 346 346 345 343 343 343 342 343 341 338 338 337 338 341 339 337 335 334 332 333 334 333 333 333 334 335 333 334 334 332
326 328 329 332 335 337 338 337 336 343 343 345 346 348 344 344 344 343 343 342 341 340 337 338 341 340 339 337 334 333 331 330 330 332 334 334 334 334 334 334 332 333 335
324 325 327 332 335 337 341 342 345 346 346 347 346 346 347 344 343 342 342 342 341 338 341 342 340 340 338 336 332 331 331 330 331 333 332 335 336 334 332 330 333 332 333

GFSSE_925_thetae_036.txt.gz
Theta_e
347 327 320 320 319 318 318 321 327 333 338 341 343 344 345 345 345 344 343 342 339 335 332 326 321 318 317 317 315 314 315 317 320 327 335 341 344 343 343 345 346 348 342
345 327 320 320 318 317 318 320 327 332 338 341 342 344 345 345 345 343 340 337 332 323 320 319 319 318 315 315 313 312 311 310 310 314 322 332 338 343 343 343 344 348 343
343 326 320 319 318 317 318 319 325 332 337 339 340 342 344 345 344 340 334 326 320 320 318 318 315 315 317 316 316 317 315 314 312 309 308 323 341 339 341 342 344 345 340
342 327 320 319 318 317 316 317 323 328 334 337 337 339 341 343 340 333 324 319 320 321 317 316 316 319 322 320 320 320 319 318 316 312 317 321 331 333 331 341 342 343 340
344 329 322 319 319 317 316 317 320 325 331 333 334 336 339 338 332 322 318 318 318 319 328 330 329 327 325 325 323 323 324 324 317 322 335 330 325 334 326 338 342 341 339
345 333 327 319 319 318 317 316 316 320 324 325 328 329 333 331 325 319 317 317 314 321 329 331 331 326 327 326 328 332 333 332 330 340 341 333 331 329 324 327 341 345 340
347 344 338 320 319 319 317 316 315 316 318 320 321 323 325 324 319 318 316 314 315 321 328 331 327 327 328 330 332 331 332 331 329 335 339 337 334 327 326 323 332 339 343
346 346 343 332 319 319 318 316 316 315 316 316 317 318 318 318 317 316 314 313 315 321 328 329 326 327 328 330 332 335 336 334 334 337 338 338 338 334 334 315 326 333 337
344 346 346 339 324 319 319 317 316 315 315 315 316 316 316 316 316 314 313 314 316 319 326 329 328 328 329 329 330 332 333 333 331 331 337 338 337 337 335 321 315 326 331
342 346 352 347 337 324 322 320 318 316 315 316 315 315 315 315 314 313 314 315 316 319 326 328 328 329 330 331 330 331 329 329 325 326 333 336 338 336 333 325 321 335 331
341 342 349 353 347 335 337 328 320 318 316 315 316 315 315 314 315 315 315 316 317 320 327 326 327 333 333 331 329 326 325 327 333 334 335 336 336 335 333 327 326 340 339
341 343 346 351 349 342 340 340 332 321 319 316 316 316 316 315 322 323 323 320 324 321 325 326 329 333 331 333 331 330 332 332 335 336 336 337 335 334 333 329 329 336 338
339 342 345 347 348 346 342 340 340 337 328 322 318 320 323 323 325 332 330 330 326 329 324 327 331 331 332 333 337 339 336 336 336 333 335 335 334 331 327 330 328 334 336
337 337 344 347 348 348 347 344 343 342 341 338 334 329 331 333 332 332 333 334 331 332 329 332 335 334 335 338 336 340 339 337 334 334 334 334 332 332 328 320 330 330 334
334 334 338 347 348 347 346 348 345 346 345 343 341 339 334 337 334 333 335 335 335 335 334 332 337 338 340 337 339 339 336 335 335 335 336 335 334 334 330 326 324 334 333
334 335 334 336 342 347 345 345 349 342 344 346 344 343 340 337 338 336 334 337 338 337 337 333 338 338 339 342 342 339 337 337 336 336 335 335 335 334 332 328 327 334 336
332 334 334 333 345 342 344 342 343 352 344 346 347 345 344 341 339 337 339 337 335 340 336 337 335 341 343 343 339 341 338 337 337 337 336 337 335 335 332 331 328 328 332
331 331 331 334 334 338 343 344 346 343 349 349 345 347 346 346 342 341 340 340 339 336 338 339 336 338 338 339 342 338 340 339 339 337 334 335 336 335 333 333 333 329 328
333 333 337 335 335 342 345 345 345 348 348 346 345 346 346 348 346 342 343 342 340 339 338 337 338 339 339 340 340 339 340 340 339 338 338 337 335 335 334 334 333 332 329
335 335 335 336 336 334 339 345 347 344 342 342 343 342 345 347 349 345 344 344 342 339 339 339 337 335 336 339 338 338 339 339 337 337 336 335 333 332 333 334 333 333 330
332 332 331 331 332 333 335 340 340 341 339 340 343 343 342 346 348 348 346 345 342 343 340 337 337 336 338 337 339 338 339 339 336 338 336 333 334 333 333 334 334 333 332
332 330 331 334 335 333 334 336 337 338 337 336 341 344 344 347 348 347 348 345 345 343 340 338 337 338 338 337 337 340 341 338 337 338 335 333 332 332 334 334 333 333 332
332 331 333 331 330 327 333 339 340 336 335 340 346 346 345 346 348 347 347 346 345 342 341 338 339 337 338 338 339 339 339 337 335 334 334 333 333 333 333 333 332 332 329
332 330 332 334 331 330 336 342 340 341 343 343 347 348 346 346 347 347 346 344 345 342 341 340 339 338 336 341 340 338 336 335 335 335 333 332 333 334 334 333 332 332 332
327 327 327 327 331 334 337 338 341 345 344 343 344 348 348 346 347 346 344 343 344 343 340 340 339 337 337 341 339 337 335 334 332 333 333 333 333 332 334 333 330 331 332
327 330 331 333 334 336 336 342 342 339 341 346 351 350 349 347 346 342 343 342 343 342 342 338 338 337 341 339 336 334 334 333 333 333 333 332 333 331 332 331 331 331 332

GFSSE_925_thetae_042.txt.gz
Theta_e
337 325 322 318 318 319 323 329 334 336 338 340 340 340 340 340 340 339 338 338 336 334 332 330 326 321 317 315 314 313 314 315 318 325 332 339 343 343 342 344 346 339 340
328 324 320 318 318 318 321 325 330 334 335 337 338 337 337 337 336 336 335 332 329 324 319 317 317 316 314 311 310 309 309 309 311 317 327 329 339 342 342 343 346 342 337
324 322 320 318 317 318 319 323 326 328 331 334 334 333 333 334 332 331 328 324 319 318 317 317 316 314 313 312 312 312 311 310 309 308 314 324 339 340 342 342 340 341 339
323 321 320 318 317 318 319 321 323 326 327 330 330 330 330 330 328 326 322 318 318 317 316 314 316 317 317 316 315 315 315 315 312 314 325 323 331 338 335 340 340 340 339
323 321 319 318 317 318 318 320 322 324 327 326 327 328 328 328 325 322 318 316 316 315 313 314 317 318 318 317 317 319 319 316 322 336 338 329 326 337 328 329 338 340 339
323 321 319 318 317 317 318 319 321 323 325 325 327 326 325 326 324 321 317 316 316 314 314 314 317 319 319 319 320 325 326 324 328 339 339 336 329 332 327 324 323 336 338
323 321 319 318 318 318 318 318 319 321 323 323 324 324 325 323 323 321 317 316 316 314 315 317 320 320 321 322 323 326 327 327 331 337 337 337 335 331 325 324 324 326 339
323 322 319 319 317 318 318 318 318 319 321 322 322 322 320 320 321 320 317 316 315 314 316 318 319 322 324 325 326 326 327 328 327 329 336 336 338 331 326 329 325 325 335
323 323 322 322 318 318 317 318 317 317 318 321 321 319 319 319 320 319 317 316 315 315 317 318 320 322 325 327 328 329 329 328 327 327 327 336 336 330 328 332 318 318 329
331 325 323 322 319 317 317 317 317 317 317 317 319 318 319 320 319 319 317 316 315 314 316 317 320 322 323 328 330 329 328 328 326 326 325 329 334 333 333 330 326 318 322
336 330 325 323 321 318 318 317 316 316 317 317 317 318 319 320 320 319 317 316 315 314 316 317 321 324 324 328 329 328 327 326 326 326 330 332 334 334 335 331 331 326 318
344 339 329 324 322 320 319 318 317 317 316 316 316 317 318 319 318 318 317 316 316 314 315 317 320 326 326 327 328 326 325 329 331 330 333 334 335 336 334 333 331 329 326
348 346 341 333 327 321 321 320 319 318 317 317 316 316 317 318 318 319 318 317 316 315 317 317 320 325 325 326 326 326 326 330 335 333 335 335 335 335 335 332 329 329 331
344 347 345 342 336 331 323 320 320 319 319 318 318 317 318 319 320 321 319 318 317 316 318 318 318 321 323 325 326 326 326 331 337 337 335 336 335 335 334 331 328 328 330
348 351 349 347 345 341 334 325 322 321 320 319 319 319 318 318 319 320 320 319 318 319 321 320 321 321 321 323 325 326 326 333 338 339 338 335 335 335 332 331 329 327 328
342 345 343 343 340 341 344 334 332 326 325 325 325 325 322 320 320 320 320 320 321 321 324 325 324 323 322 322 323 326 325 333 337 340 337 336 335 334 333 333 333 331 330
339 339 337 336 336 335 342 338 341 339 338 338 338 338 337 336 333 329 326 323 321 322 326 329 329 329 328 326 327 328 331 335 336 339 336 336 335 334 333 333 333 330 329
336 336 340 338 336 339 345 343 343 342 341 341 341 341 341 340 340 339 336 333 329 326 327 331 333 332 332 331 331 332 333 338 339 339 337 337 336 335 335 334 334 332 330
333 336 337 343 344 344 345 344 343 343 343 344 343 343 343 343 343 342 341 338 336 333 331 333 335 335 334 334 335 336 335 339 342 340 339 337 336 336 335 334 335 333 331
330 332 336 342 340 337 339 345 346 347 347 347 346 345 345 345 345 345 343 340 339 336 333 335 336 336 335 336 336 337 341 341 341 340 339 337 336 336 335 334 334 334 332
327 328 331 332 337 341 342 349 349 349 347 347 345 346 349 349 348 348 345 342 340 339 336 335 337 337 336 336 336 338 339 339 339 339 337 337 335 335 334 335 333 332 333
324 324 326 333 336 341 343 344 347 348 346 343 342 340 342 344 346 347 346 344 342 339 338 337 337 337 338 338 337 336 336 336 339 339 337 336 335 334 335 334 332 333 332
324 325 327 330 335 340 342 345 346 345 343 342 345 345 343 344 344 343 342 345 343 341 340 339 339 338 337 337 337 335 334 333 328 332 334 335 335 334 333 332 332 332 332
325 326 329 333 337 339 340 340 341 336 336 334 332 333 335 336 339 339 342 345 345 343 342 342 341 339 339 337 337 336 335 333 332 330 331 333 333 332 332 332 332 332 332
322 325 329 332 336 335 335 334 333 333 331 329 331 331 332 333 335 338 344 347 346 344 343 344 342 340 338 337 337 337 336 335 333 329 330 326 332 332 331 330 330 331 331
323 323 328 333 333 332 330 330 330 330 330 333 334 337 339 339 344 346 347 348 347 346 344 344 343 341 339 337 336 336 335 334 330 328 323 323 325 329 329 330 331 331 331

GFSSE_925_thetae_045.txt.gz
Theta_e
333 329 330 333 332 331 331 332 336 337 337 338 339 339 339 340 341 341 340 340 338 336 336 334 330 327 323 319 317 316 315 316 319 326 338 342 343 343 341 343 341 339 342
328 327 328 331 329 327 327 328 332 335 337 338 338 338 337 337 337 336 336 335 333 330 327 322 317 314 313 312 311 310 310 312 315 321 329 333 337 342 343 341 342 339 340
324 325 324 325 323 324 325 326 328 330 333 334 335 336 335 333 331 331 329 326 321 317 315 315 314 312 311 310 310 310 310 309 308 312 319 333 337 336 340 341 339 341 337
323 323 320 320 321 323 323 324 325 327 329 329 330 330 329 328 327 325 322 318 315 315 315 314 313 313 314 314 315 315 315 314 312 314 316 328 337 334 334 338 339 339 338
325 322 319 318 320 322 322 323 323 325 327 327 327 328 328 326 324 322 319 316 315 315 314 313 314 315 317 317 317 317 317 317 324 335 332 330 326 336 330 331 336 338 339
325 324 318 318 319 320 321 321 321 322 323 324 325 326 325 324 323 320 317 316 316 315 313 314 315 317 319 319 320 323 323 323 329 338 337 335 329 330 329 328 329 335 338
329 326 319 318 319 320 320 320 320 320 321 321 322 323 322 321 321 320 317 316 316 315 314 315 316 319 320 320 321 326 327 327 330 336 337 337 335 332 330 327 331 331 336
326 325 320 317 318 319 320 320 320 320 320 320 320 321 322 321 321 320 318 316 316 315 315 316 317 320 322 322 323 325 326 328 329 333 333 336 337 335 331 326 329 327 334
333 326 321 318 317 319 320 320 321 320 320 320 320 320 322 322 321 320 319 316 316 315 315 316 319 321 323 324 324 326 327 327 329 329 329 333 335 336 330 326 329 320 326
336 331 323 318 318 321 320 320 321 321 320 320 320 320 320 321 321 322 320 317 316 316 315 316 320 322 324 326 326 326 326 327 328 329 328 324 334 335 331 329 326 321 323
337 333 323 320 320 323 323 322 320 320 320 319 319 320 320 322 323 323 322 319 317 316 315 315 318 321 325 326 327 325 326 325 330 330 330 330 331 333 333 333 329 328 322
337 333 322 320 320 321 324 326 324 323 322 321 321 322 323 323 323 322 321 319 317 317 315 314 317 320 325 326 326 326 325 324 329 331 329 332 334 334 335 335 333 330 328
333 334 329 322 320 321 324 327 325 326 322 321 320 322 323 323 324 324 322 319 318 317 316 315 316 320 321 323 326 326 325 324 327 333 333 333 334 334 336 336 333 330 329
337 334 329 327 323 322 325 324 323 323 323 322 321 322 324 322 322 321 320 319 318 318 318 316 316 317 319 321 325 326 327 325 325 333 336 336 335 335 335 335 332 331 329
345 338 334 330 326 328 326 324 326 324 321 324 321 320 321 320 320 319 320 320 318 319 319 317 317 318 319 319 323 326 327 326 326 330 338 338 337 335 335 334 333 331 329
346 346 342 338 332 325 324 323 324 325 323 324 324 321 321 320 320 320 320 320 320 320 319 318 318 319 320 320 320 323 326 327 327 329 337 338 336 334 335 333 333 332 330
343 345 345 344 340 339 339 338 335 327 331 327 324 323 322 321 322 321 321 321 320 320 320 321 322 325 326 325 325 324 325 326 326 329 336 338 335 335 335 333 333 333 332
341 345 349 348 345 344 338 337 339 339 340 338 333 329 330 329 328 329 327 328 328 326 323 323 324 328 329 329 329 329 329 329 329 333 336 339 337 336 335 334 334 334 333
336 337 341 344 341 339 337 336 336 335 340 342 339 338 338 338 338 337 337 337 336 334 331 328 327 328 330 331 332 332 333 332 333 337 339 339 337 336 334 334 335 334 334
334 335 335 336 339 337 337 336 336 338 342 342 341 340 340 340 340 341 340 340 339 337 335 332 330 330 332 332 333 334 335 335 336 339 340 340 337 335 331 334 334 334 334
329 333 334 335 335 339 341 342 343 344 344 344 343 343 343 343 343 343 342 342 340 338 339 336 333 332 333 334 334 335 335 336 340 340 340 339 337 335 334 334 334 334 332
326 329 330 333 333 333 342 344 345 345 345 346 346 345 346 347 345 346 346 345 343 339 337 336 335 334 334 335 335 334 333 335 337 338 339 338 337 335 335 334 334 333 332
321 323 325 326 327 328 333 344 346 346 346 346 347 346 347 345 341 343 346 346 345 342 340 338 337 335 335 336 336 336 332 334 327 331 334 334 334 334 334 333 334 332 332
316 318 321 323 326 328 330 343 344 344 343 344 344 344 341 341 341 343 345 346 346 344 340 340 339 336 336 336 335 336 334 333 331 329 330 331 332 333 333 332 331 332 331
313 316 318 322 324 328 333 340 343 341 341 341 340 338 337 338 340 338 339 339 341 342 342 341 340 337 337 337 337 335 334 333 332 331 330 327 331 332 332 332 331 331 331
315 314 315 320 325 327 331 337 341 340 340 336 334 333 333 331 331 333 338 341 341 343 343 343 341 341 340 338 337 337 336 334 332 329 329 323 323 328 329 329 329 329 329

GFSSE_925_thetae_048.txt.gz
Theta_e
330 331 337 344 345 342 338 338 338 342 346 348 348 347 348 347 347 347 345 343 341 337 335 334 332 328 324 322 321 320 318 317 323 336 341 342 343 342 342 342 337 338 340
327 329 334 341 344 340 337 336 335 336 337 340 342 341 341 343 347 345 341 338 334 332 330 328 325 320 315 314 313 312 312 314 319 325 331 338 341 342 342 340 340 338 340
325 329 334 336 339 336 334 334 333 333 333 335 335 336 335 335 335 334 333 332 329 325 320 317 314 314 312 311 310 310 309 309 312 319 325 334 335 338 341 341 339 339 337
323 327 331 334 332 332 329 330 330 330 331 331 329 330 330 330 329 329 327 324 320 316 315 314 313 312 312 312 313 313 312 311 310 312 320 335 337 335 335 338 338 338 337
323 327 331 333 327 328 327 326 327 327 328 327 327 328 327 327 325 324 321 318 316 315 315 314 314 315 315 317 316 316 315 315 327 332 331 328 325 334 331 334 337 338 338
324 325 329 332 326 324 323 325 325 324 325 325 326 325 325 325 323 320 318 316 316 316 314 315 316 317 317 318 319 321 319 323 332 335 335 334 329 328 332 332 333 335 337
329 325 329 333 326 324 322 325 323 323 323 323 323 324 324 323 322 319 317 316 316 315 314 315 316 318 318 319 322 325 324 327 330 335 336 337 336 328 333 329 331 330 333
330 326 328 336 326 323 324 323 322 322 322 321 322 323 323 322 321 319 317 316 316 316 315 315 316 318 320 321 322 324 326 327 330 333 335 337 336 336 333 329 330 330 328
332 331 333 335 325 325 325 324 322 322 321 321 321 321 321 321 321 321 318 316 316 316 315 316 317 318 320 321 323 323 325 326 328 328 329 330 335 337 334 330 327 328 328
334 332 332 339 333 325 325 324 324 322 321 321 321 321 321 321 322 322 321 317 316 316 316 316 317 318 320 320 322 324 324 327 328 328 325 326 329 334 335 332 328 327 323
335 335 331 337 330 325 324 325 326 327 325 324 324 324 323 325 325 326 323 320 317 316 316 315 316 317 319 322 323 324 324 326 327 327 327 327 328 331 334 334 331 328 328
334 334 331 332 326 325 322 325 325 329 329 329 328 327 328 326 325 326 325 324 320 317 317 316 315 317 321 323 324 324 324 325 327 329 331 329 332 333 334 334 334 332 330
331 331 330 329 327 322 321 323 324 328 329 328 328 329 332 332 330 330 326 325 323 319 318 317 316 316 319 322 323 325 324 325 327 327 331 333 333 334 334 335 335 333 330
332 331 333 331 329 324 322 322 323 324 327 328 330 332 331 330 332 330 327 326 323 320 319 318 317 317 317 319 321 323 325 326 326 326 327 335 336 335 335 335 335 333 331
335 335 332 334 329 323 322 321 322 324 322 324 326 325 329 329 328 327 325 325 323 319 320 319 319 318 318 318 320 321 323 325 326 325 324 331 337 337 335 334 334 333 332
338 334 330 331 329 324 322 323 320 321 320 320 320 321 323 322 322 323 323 322 321 319 320 321 319 319 319 319 319 320 321 322 324 325 325 330 337 336 335 334 333 333 332
341 340 330 328 329 326 324 321 323 321 322 321 320 321 320 321 321 321 322 321 321 319 320 323 322 322 322 322 322 323 323 323 324 324 323 327 337 336 335 334 334 333 333
338 344 343 337 333 330 325 322 322 322 322 323 324 323 325 324 323 324 324 323 323 322 322 323 323 323 324 324 325 326 327 328 328 328 327 329 335 338 336 335 334 334 333
335 341 346 347 344 339 335 331 326 330 327 334 333 334 339 333 329 327 326 326 327 328 328 328 327 325 325 326 327 328 330 331 332 332 331 335 337 338 336 335 333 328 334
319 331 337 340 348 347 344 341 340 340 339 337 336 335 336 339 336 334 335 334 334 334 333 333 331 330 328 328 329 330 332 334 334 334 335 336 339 339 336 332 330 332 334
316 320 326 333 337 347 341 337 337 337 337 337 337 337 340 341 339 339 338 339 339 337 338 337 334 331 331 331 331 333 334 334 335 335 337 340 339 338 337 335 334 333 334
314 317 321 325 331 334 342 340 339 338 337 338 340 342 342 342 342 341 342 342 341 339 337 337 335 332 332 332 333 332 337 335 335 336 339 339 339 338 337 335 334 334 332
312 313 315 318 323 329 333 336 340 342 342 341 341 342 343 344 343 343 344 344 343 341 340 339 337 335 333 333 333 335 336 339 330 331 335 337 337 337 335 334 334 334 333
314 314 314 315 317 319 325 332 338 341 342 339 338 341 342 344 344 344 346 345 343 343 342 340 339 337 334 334 333 334 335 333 335 334 330 331 332 332 332 333 333 332 332
314 316 316 315 315 317 320 324 329 336 337 336 339 342 343 342 342 343 343 342 343 344 344 342 340 337 335 335 335 335 334 333 332 331 334 331 330 331 332 332 331 331 331
313 316 316 319 319 317 322 324 326 334 336 339 340 341 342 340 341 341 339 341 340 341 342 341 340 339 338 336 336 337 336 335 333 331 334 329 329 328 329 330 329 329 328